Location: Strawberry
(45.6646°N, 111.9596°W)
Time: 11:40:54
(UTC+00:00)

CUTE-I - Visible Passes

Search period start: 04 December 2022 00:00
Search period end: 14 December 2022 00:00
Orbit: 810 x 823 km, 98.7° (Epoch: 03 December)

Date Brightness Start Highest point End Pass type
(mag) Time Alt. Az. Time Alt. Az. Time Alt. Az.
04 Dec ? 00:26:57 10° SSE 00:32:10 61° ENE 00:37:26 10° N visible
04 Dec ? 02:08:47 10° SW 02:12:36 20° W 02:16:26 10° NW visible
04 Dec ? 12:42:08 10° NE 12:46:02 20° E 12:49:54 10° SE visible
05 Dec ? 01:46:00 10° SSW 01:50:37 30° W 01:55:18 10° NW visible
05 Dec ? 12:21:39 10° ENE 12:23:59 13° E 12:26:19 10° ESE visible
05 Dec ? 13:59:20 10° NNE 14:04:44 90° ESE 14:10:07 10° SSW visible
06 Dec ? 01:23:38 10° S 01:28:43 46° W 01:33:52 10° NNW visible
06 Dec ? 13:37:37 10° NNE 13:42:57 60° E 13:48:15 10° S visible
07 Dec ? 01:01:36 10° S 01:06:54 70° WSW 01:12:15 10° NNW visible
07 Dec ? 13:16:05 10° NNE 13:21:06 39° E 13:26:06 10° SSE visible
08 Dec ? 00:39:50 10° SSE 00:45:08 78° ENE 00:50:31 10° NNW visible
08 Dec ? 02:22:44 10° WSW 02:25:46 15° W 02:28:49 10° NW visible
08 Dec ? 12:54:44 10° NE 12:59:11 26° E 13:03:36 10° SSE visible
09 Dec ? 00:18:20 10° SE 00:23:28 51° ENE 00:28:38 10° N visible
09 Dec ? 01:59:33 10° SW 02:03:45 23° W 02:08:00 10° NW visible
09 Dec ? 12:33:46 10° NE 12:37:11 17° E 12:40:35 10° SE visible
09 Dec ? 14:12:22 10° N 14:17:44 72° WNW 14:23:04 10° SSW visible
10 Dec ? 01:36:57 10° SSW 01:41:49 35° W 01:46:43 10° NNW visible
10 Dec ? 12:14:13 10° ENE 12:15:06 10° E 12:16:00 10° E visible
10 Dec ? 13:50:35 10° NNE 13:56:00 77° ESE 14:01:22 10° S visible
11 Dec ? 01:14:44 10° S 01:19:56 54° W 01:25:12 10° NNW visible
11 Dec ? 13:28:57 10° NNE 13:34:12 50° E 13:39:23 10° S visible
12 Dec ? 00:52:48 10° SSE 00:58:08 83° WSW 01:03:32 10° NNW visible
12 Dec ? 02:37:17 10° WSW 02:38:58 11° W 02:40:40 10° WNW visible
12 Dec ? 13:07:28 10° NNE 13:12:18 33° E 13:17:06 10° SSE visible
13 Dec ? 00:31:08 10° SSE 00:36:25 66° ENE 00:41:44 10° N visible
13 Dec ? 02:13:18 10° SW 02:16:54 18° W 02:20:32 10° NW visible
13 Dec ? 12:46:15 10° NE 12:50:21 22° E 12:54:26 10° SE visible
13 Dec ? 14:25:26 10° N 14:30:42 56° WNW 14:35:56 10° SSW visible
